GW1822 Weather Reports


Display with metric or nautical units.
time (UTC)temp
F
wind
direction
speed
MPH
gust
MPH
rain 1hr
in
rain 24hr
in
rain mn
in
humidity
%
barometer
mb
20260906145723 71 154 1.0 3.0 0.00 0.00 0.00 81 1021.7
20260906145224 70 267 2.0 2.0 0.00 0.00 0.00 80 1021.6
20260906144724 70 4 0.0 1.0 0.00 0.00 0.00 83 1021.6
20260906144223 69 4 0.0 2.0 0.00 0.00 0.00 84 1021.6
20260906143724 68 223 0.0 2.0 0.00 0.00 0.00 85 1021.5
20260906143223 68 340 1.0 4.0 0.00 0.00 0.00 88 1021.5
20260906142723 67 32 1.0 2.0 0.00 0.00 0.00 89 1021.6
20260906142224 66 18 1.0 3.0 0.00 0.00 0.00 92 1021.6
20260906141724 65 104 1.0 2.0 0.00 0.00 0.00 93 1021.5
20260906141223 64 15 1.0 3.0 0.00 0.00 0.00 96 1021.4
20260906140723 63 52 2.0 4.0 0.00 0.00 0.00 98 1021.4
20260906140224 63 348 2.0 2.0 0.00 0.00 0.00 100 1021.5
20260906135723 62 16 0.0 1.0 0.00 0.00 0.00 100 1021.5
20260906135223 61 348 2.0 2.0 0.00 0.00 0.00 100 1021.6
20260906134723 61 14 0.0 1.0 0.00 0.00 0.00 100 1021.7
20260906134224 60 9 1.0 3.0 0.00 0.00 0.00 100 1021.8
20260906133723 60 4 0.0 1.0 0.00 0.00 0.00 100 1021.8
20260906133225 59 12 1.0 1.0 0.00 0.00 0.00 100 1021.9
20260906132724 59 359 1.0 1.0 0.00 0.00 0.00 100 1021.9
20260906132224 58 355 1.0 2.0 0.00 0.00 0.00 100 1021.8
20260906131723 58 359 1.0 2.0 0.00 0.00 0.00 100 1021.8
20260906131224 58 357 1.0 3.0 0.00 0.00 0.00 100 1021.9
20260906130724 58 360 0.0 0.0 0.00 0.00 0.00 100 1021.8
20260906130224 58 360 0.0 0.0 0.00 0.00 0.00 100 1021.7
20260906125723 57 345 0.0 2.0 0.00 0.00 0.00 100 1021.7
20260906125223 57 332 0.0 0.0 0.00 0.00 0.00 100 1021.6
20260906124735 57 360 0.0 0.0 0.00 0.00 0.00 100 1021.5
20260906124223 57 348 1.0 2.0 0.00 0.00 0.00 100 1021.6
20260906123723 57 360 0.0 0.0 0.00 0.00 0.00 100 1021.5
20260906123223 56 345 1.0 2.0 0.00 0.00 0.00 100 1021.5
20260906122723 56 338 1.0 2.0 0.00 0.00 0.00 100 1021.5
20260906122223 56 360 0.0 0.0 0.00 0.00 0.00 100 1021.4
20260906121723 56 333 0.0 2.0 0.00 0.00 0.00 100 1021.5
20260906121223 56 334 1.0 2.0 0.00 0.00 0.00 100 1021.4
20260906120723 56 342 1.0 2.0 0.00 0.00 0.00 100 1021.3
20260906120223 56 335 0.0 2.0 0.00 0.00 0.00 100 1021.3
20260906115723 56 350 0.0 1.0 0.00 0.00 0.00 100 1021.2
20260906115224 56 357 1.0 2.0 0.00 0.00 0.00 100 1021.1
20260906114724 56 360 0.0 0.0 0.00 0.00 0.00 100 1021.1
20260906114223 56 360 0.0 0.0 0.00 0.00 0.00 100 1020.9
20260906113723 56 360 0.0 0.0 0.00 0.00 0.00 100 1020.7
20260906113223 56 7 0.0 1.0 0.00 0.00 0.00 100 1020.7
20260906112723 56 9 1.0 1.0 0.00 0.00 0.00 100 1020.7
20260906112223 56 33 1.0 3.0 0.00 0.00 0.00 100 1020.8
20260906111723 56 350 2.0 2.0 0.00 0.00 0.00 100 1020.8
20260906111224 56 358 0.0 2.0 0.00 0.00 0.00 100 1020.9
20260906110723 56 351 1.0 2.0 0.00 0.00 0.00 100 1020.9
20260906110223 56 360 0.0 0.0 0.00 0.00 0.00 100 1020.9
20260906105723 56 357 0.0 2.0 0.00 0.00 0.00 100 1020.8
20260906105223 56 358 0.0 1.0 0.00 0.00 0.00 100 1020.7
20260906104723 56 360 0.0 0.0 0.00 0.00 0.00 100 1020.7
20260906104223 56 6 1.0 2.0 0.00 0.00 0.00 100 1020.7
20260906103724 56 13 1.0 1.0 0.00 0.00 0.00 100 1020.7
20260906103223 56 2 1.0 2.0 0.00 0.00 0.00 100 1020.7
20260906102723 57 359 1.0 2.0 0.00 0.00 0.00 100 1020.6
20260906102223 57 1 1.0 2.0 0.00 0.00 0.00 100 1020.6
20260906101723 57 4 1.0 2.0 0.00 0.00 0.00 100 1020.6
20260906101223 57 7 0.0 1.0 0.00 0.00 0.00 100 1020.5
20260906100723 57 10 1.0 1.0 0.00 0.00 0.00 100 1020.5
20260906100223 57 3 1.0 2.0 0.00 0.00 0.00 100 1020.4
20260906095723 57 2 1.0 2.0 0.00 0.00 0.00 100 1020.5
20260906095223 57 356 1.0 2.0 0.00 0.00 0.00 100 1020.5
20260906094723 57 3 1.0 2.0 0.00 0.00 0.00 100 1020.5
20260906094223 58 15 0.0 1.0 0.00 0.00 0.00 100 1020.5
20260906093723 58 360 0.0 0.0 0.00 0.00 0.00 100 1020.4
20260906093223 58 32 1.0 3.0 0.00 0.00 0.00 100 1020.4
20260906092723 58 354 1.0 2.0 0.00 0.00 0.00 100 1020.5
20260906092223 58 351 0.0 1.0 0.00 0.00 0.00 100 1020.5
20260906091724 58 354 1.0 2.0 0.00 0.00 0.00 100 1020.5
20260906091223 58 347 2.0 2.0 0.00 0.00 0.00 100 1020.5
20260906090724 58 360 1.0 2.0 0.00 0.00 0.00 100 1020.5
20260906090223 58 346 0.0 2.0 0.00 0.00 0.00 100 1020.6
20260906085724 58 347 1.0 2.0 0.00 0.00 0.00 100 1020.7
20260906085223 58 1 0.0 0.0 0.00 0.00 0.00 100 1020.6
20260906084723 58 360 1.0 2.0 0.00 0.00 0.00 100 1020.6
20260906084223 58 91 2.0 4.0 0.00 0.00 0.00 100 1020.6
20260906083724 58 36 0.0 0.0 0.00 0.00 0.00 100 1020.7
20260906083225 58 13 1.0 3.0 0.00 0.00 0.00 100 1020.6
20260906082723 59 360 0.0 0.0 0.00 0.00 0.00 100 1020.5
20260906082224 59 29 0.0 1.0 0.00 0.00 0.00 100 1020.4
20260906081723 59 9 0.0 2.0 0.00 0.00 0.00 100 1020.2
20260906081224 59 27 2.0 4.0 0.00 0.00 0.00 100 1020.1
20260906080725 59 358 2.0 4.0 0.00 0.00 0.00 100 1020.2
20260906080223 59 107 3.0 4.0 0.00 0.00 0.00 100 1020.2
20260906075723 59 46 1.0 2.0 0.00 0.00 0.00 100 1020.4
20260906075224 60 10 1.0 1.0 0.00 0.00 0.00 100 1020.2
20260906074723 60 15 1.0 2.0 0.00 0.00 0.00 100 1020.2
20260906074223 60 7 0.0 1.0 0.00 0.00 0.00 100 1020.4
20260906073723 60 360 0.0 0.0 0.00 0.00 0.00 100 1020.5
20260906073223 60 360 0.0 0.0 0.00 0.00 0.00 100 1020.4
20260906072723 60 18 1.0 1.0 0.00 0.00 0.00 100 1020.2
20260906072223 61 18 0.0 1.0 0.00 0.00 0.00 100 1020.2
20260906071723 61 360 0.0 0.0 0.00 0.00 0.00 100 1020.2
20260906071223 61 360 0.0 0.0 0.00 0.00 0.00 100 1020.4
20260906070724 61 9 0.0 1.0 0.00 0.00 0.00 100 1020.4
20260906070223 61 348 0.0 1.0 0.00 0.00 0.00 100 1020.5
20260906065724 61 351 0.0 1.0 0.00 0.00 0.00 100 1020.4
20260906065223 61 5 1.0 1.0 0.00 0.00 0.00 100 1020.2
20260906064724 61 14 1.0 1.0 0.00 0.00 0.00 100 1020.4
20260906064223 61 13 0.0 1.0 0.00 0.00 0.00 100 1020.5
20260906063724 62 7 0.0 1.0 0.00 0.00 0.00 100 1020.6
20260906063223 62 360 0.0 0.0 0.00 0.00 0.00 100 1020.6
20260906062723 62 360 0.0 0.0 0.00 0.00 0.00 100 1020.6
20260906062223 62 12 0.0 1.0 0.00 0.00 0.00 100 1020.6
20260906061723 62 359 0.0 1.0 0.00 0.00 0.00 100 1020.6
20260906061223 62 360 0.0 0.0 0.00 0.00 0.00 100 1020.6
20260906060723 62 342 0.0 2.0 0.00 0.00 0.00 100 1020.6
20260906060223 62 360 0.0 0.0 0.00 0.00 0.00 100 1020.5
20260906055723 62 348 2.0 2.0 0.00 0.00 0.00 100 1020.4
20260906055224 62 360 0.0 0.0 0.00 0.00 0.00 100 1020.1
20260906054723 62 16 1.0 1.0 0.00 0.00 0.00 100 1020.1
20260906054224 62 341 0.0 1.0 0.00 0.00 0.00 100 1020.2
20260906053723 62 360 0.0 0.0 0.00 0.00 0.00 100 1020.2
20260906053223 62 360 0.0 0.0 0.00 0.00 0.00 100 1020.1
20260906052723 62 360 0.0 0.0 0.00 0.00 0.00 100 1020.0
20260906052223 61 360 0.0 0.0 0.00 0.00 0.00 100 1019.9
20260906051723 61 360 0.0 0.0 0.00 0.00 0.00 100 1019.9
20260906051223 61 360 0.0 0.0 0.00 0.00 0.00 99 1019.8
20260906050723 61 360 0.0 0.0 0.00 0.00 0.00 99 1019.8
20260906050223 61 345 0.0 1.0 0.00 0.00 0.00 99 1019.8
20260906045726 61 349 0.0 1.0 0.00 0.00 0.00 99 1019.7
20260906045223 61 7 1.0 1.0 0.00 0.00 0.00 99 1019.7
20260906044724 61 360 0.0 0.0 0.00 0.00 0.00 99 1019.7
20260906044223 61 3 0.0 1.0 0.00 0.00 0.00 99 1019.6
20260906043723 61 10 1.0 1.0 0.00 0.00 0.00 99 1019.6
20260906043224 61 360 0.0 0.0 0.00 0.00 0.00 99 1019.5
20260906042723 61 360 0.0 0.0 0.00 0.00 0.00 99 1019.6
20260906042224 61 360 0.0 0.0 0.00 0.00 0.00 99 1019.6
20260906041723 62 360 0.0 0.0 0.00 0.00 0.00 99 1019.5
20260906041224 61 360 0.0 0.0 0.00 0.00 0.00 99 1019.4
20260906040723 61 351 0.0 2.0 0.00 0.00 0.00 99 1019.4
20260906040223 62 355 1.0 2.0 0.00 0.00 0.00 99 1019.3
20260906035723 62 3 0.0 1.0 0.00 0.00 0.00 99 1019.2
20260906035224 62 360 0.0 0.0 0.00 0.00 0.00 99 1019.2
20260906034723 62 360 1.0 1.0 0.00 0.00 0.00 99 1019.2
20260906034223 62 352 1.0 2.0 0.00 0.00 0.00 99 1019.2
20260906033724 62 23 1.0 1.0 0.00 0.00 0.00 99 1019.2
20260906033223 62 28 0.0 0.0 0.00 0.00 0.00 99 1019.1
20260906032723 63 39 0.0 1.0 0.00 0.00 0.00 99 1018.9
20260906032223 63 22 1.0 1.0 0.00 0.00 0.00 99 1019.0
20260906031724 63 360 0.0 0.0 0.00 0.00 0.00 99 1019.1
20260906031224 63 360 0.0 0.0 0.00 0.00 0.00 99 1019.0
20260906030723 63 360 0.0 0.0 0.00 0.00 0.00 99 1019.0
20260906030223 63 360 0.0 0.0 0.00 0.00 0.00 98 1018.9
20260906025723 63 360 0.0 0.0 0.00 0.00 0.00 98 1018.8
20260906025224 63 27 1.0 1.0 0.00 0.00 0.00 98 1018.8
20260906024724 64 8 0.0 1.0 0.00 0.00 0.00 98 1018.9
20260906024226 64 360 0.0 0.0 0.00 0.00 0.00 98 1019.0
20260906023723 64 360 0.0 0.0 0.00 0.00 0.00 98 1018.9
20260906023223 64 360 0.0 0.0 0.00 0.00 0.00 98 1018.8
20260906022723 64 360 0.0 0.0 0.00 0.00 0.00 98 1018.8
20260906022223 64 44 0.0 1.0 0.00 0.00 0.00 98 1018.7
20260906021724 64 360 0.0 0.0 0.00 0.00 0.00 98 1018.8
20260906021225 65 11 0.0 1.0 0.00 0.00 0.00 98 1018.8
20260906020723 65 360 0.0 0.0 0.00 0.00 0.00 98 1018.8
20260906020223 65 360 0.0 0.0 0.00 0.00 0.00 97 1018.7
20260906015724 65 360 0.0 0.0 0.00 0.00 0.00 97 1018.6
20260906015223 65 360 0.0 0.0 0.00 0.00 0.00 97 1018.6
20260906014723 65 360 0.0 0.0 0.00 0.00 0.00 97 1018.5
20260906014223 65 360 0.0 0.0 0.00 0.00 0.00 97 1018.4
20260906013723 65 32 0.0 1.0 0.00 0.00 0.00 97 1018.4
20260906013223 66 32 0.0 1.0 0.00 0.00 0.00 97 1018.5
20260906012723 66 24 0.0 1.0 0.00 0.00 0.00 96 1018.5
20260906012223 66 28 0.0 1.0 0.00 0.00 0.00 96 1018.5
20260906011723 66 360 0.0 0.0 0.00 0.00 0.00 96 1018.4
20260906011223 67 31 0.0 1.0 0.00 0.00 0.00 95 1018.4
20260906010723 67 91 0.0 1.0 0.00 0.00 0.00 95 1018.4
20260906010223 67 360 0.0 0.0 0.00 0.00 0.00 94 1018.3
20260906005724 68 360 0.0 0.0 0.00 0.00 0.00 94 1018.3
20260906005224 68 360 0.0 0.0 0.00 0.00 0.00 94 1018.3
20260906004723 69 360 0.0 0.0 0.00 0.00 0.00 93 1018.2
20260906004223 69 360 0.0 0.0 0.00 0.00 0.00 92 1018.0
20260906003723 70 360 0.0 0.0 0.00 0.00 0.00 91 1018.0
20260906003223 70 58 0.0 1.0 0.00 0.00 0.00 89 1018.0
20260906002724 71 42 0.0 1.0 0.00 0.00 0.00 87 1018.1
20260906002224 72 360 0.0 0.0 0.00 0.00 0.00 86 1018.0
20260906001724 72 77 1.0 1.0 0.00 0.00 0.00 85 1018.0
20260906001224 73 359 0.0 0.0 0.00 0.00 0.00 83 1018.1
20260906000724 73 72 0.0 1.0 0.00 0.00 0.00 82 1018.1
20260906000223 74 193 0.0 1.0 0.00 0.00 0.00 82 1018.1
20260905235723 74 68 1.0 2.0 0.00 0.00 0.00 81 1018.1
20260905235223 74 40 0.0 1.0 0.00 0.00 0.00 81 1018.1
20260905234723 74 184 2.0 3.0 0.00 0.00 0.00 80 1018.1
20260905234223 75 85 0.0 1.0 0.00 0.00 0.00 81 1018.1
20260905233724 75 360 0.0 0.0 0.00 0.00 0.00 81 1018.1
20260905233223 76 360 0.0 0.0 0.00 0.00 0.00 80 1018.1
20260905232724 78 360 0.0 0.0 0.00 0.00 0.00 80 1018.1
20260905232224 79 311 0.0 1.0 0.00 0.00 0.00 75 1018.1
20260905231723 79 87 0.0 1.0 0.00 0.00 0.00 72 1018.0
20260905231223 79 208 2.0 3.0 0.00 0.00 0.00 72 1017.9
20260905230723 79 227 0.0 2.0 0.00 0.00 0.00 72 1017.9
20260905230223 79 77 0.0 0.0 0.00 0.00 0.00 74 1018.0
20260905225723 80 360 0.0 0.0 0.00 0.00 0.00 72 1018.0
20260905225223 80 312 0.0 1.0 0.00 0.00 0.00 71 1018.1
20260905224723 80 164 1.0 3.0 0.00 0.00 0.00 70 1018.1
20260905224225 80 198 2.0 4.0 0.00 0.00 0.00 69 1018.1
20260905223723 79 274 0.0 1.0 0.00 0.00 0.00 71 1018.1
20260905223223 79 200 1.0 3.0 0.00 0.00 0.00 71 1018.1
20260905222723 78 187 2.0 3.0 0.00 0.00 0.00 74 1018.0
20260905222224 77 182 0.0 1.0 0.00 0.00 0.00 76 1018.1
20260905221723 78 360 0.0 0.0 0.00 0.00 0.00 78 1018.2
20260905221223 79 28 0.0 1.0 0.00 0.00 0.00 77 1018.3
20260905220724 80 1 0.0 1.0 0.00 0.00 0.00 75 1018.2
20260905220224 80 360 0.0 0.0 0.00 0.00 0.00 74 1018.1
20260905215723 81 243 0.0 2.0 0.00 0.00 0.00 69 1018.1
20260905215223 81 213 1.0 3.0 0.00 0.00 0.00 69 1018.1
20260905214723 81 217 2.0 3.0 0.00 0.00 0.00 72 1018.1
20260905214223 81 233 1.0 2.0 0.00 0.00 0.00 69 1018.1
20260905213723 80 117 0.0 2.0 0.00 0.00 0.00 69 1018.0
20260905213223 80 199 2.0 4.0 0.00 0.00 0.00 70 1018.0
20260905212723 80 230 0.0 3.0 0.00 0.00 0.00 70 1018.0
20260905212223 80 217 2.0 5.0 0.00 0.00 0.00 69 1018.0
20260905211728 80 334 1.0 2.0 0.00 0.00 0.00 70 1018.0
20260905211223 79 9 0.0 2.0 0.00 0.00 0.00 71 1018.0
20260905210723 79 217 1.0 2.0 0.00 0.00 0.00 73 1018.0
20260905210223 79 192 2.0 4.0 0.00 0.00 0.00 71 1018.2
20260905205723 78 194 1.0 3.0 0.00 0.00 0.00 72 1018.3
20260905205223 78 217 1.0 2.0 0.00 0.00 0.00 74 1018.4
20260905204723 78 309 0.0 1.0 0.00 0.00 0.00 79 1018.4
20260905204224 78 360 0.0 0.0 0.00 0.00 0.00 72 1018.3
20260905203723 78 360 0.0 0.0 0.00 0.00 0.00 76 1018.4
20260905203225 78 313 1.0 2.0 0.00 0.00 0.00 74 1018.5
20260905202723 80 318 1.0 2.0 0.00 0.00 0.00 74 1018.5
20260905202224 80 302 1.0 2.0 0.00 0.00 0.00 70 1018.4
20260905201723 79 223 1.0 2.0 0.00 0.00 0.00 73 1018.4
20260905201223 79 319 1.0 2.0 0.00 0.00 0.00 74 1018.4
20260905200724 79 121 0.0 1.0 0.00 0.00 0.00 72 1018.5
20260905200223 79 22 1.0 3.0 0.00 0.00 0.00 73 1018.5
20260905195724 78 228 2.0 4.0 0.00 0.00 0.00 73 1018.5
20260905195223 78 198 1.0 3.0 0.00 0.00 0.00 76 1018.5
20260905194723 78 356 0.0 2.0 0.00 0.00 0.00 78 1018.5
20260905194223 78 178 1.0 2.0 0.00 0.00 0.00 74 1018.5
20260905193723 79 228 2.0 4.0 0.00 0.00 0.00 73 1018.6
20260905193223 79 195 1.0 3.0 0.00 0.00 0.00 74 1018.5
20260905192724 79 50 0.0 1.0 0.00 0.00 0.00 74 1018.6
20260905192223 78 221 2.0 4.0 0.00 0.00 0.00 73 1018.6
20260905191724 78 237 2.0 2.0 0.00 0.00 0.00 76 1018.7
20260905191223 77 204 2.0 3.0 0.00 0.00 0.00 77 1018.6
20260905190724 76 191 1.0 4.0 0.00 0.00 0.00 79 1018.6
20260905190223 75 151 1.0 3.0 0.00 0.00 0.00 81 1018.6
20260905185723 74 357 0.0 1.0 0.00 0.00 0.00 82 1018.6
20260905185223 74 322 0.0 1.0 0.00 0.00 0.00 83 1018.6
20260905184723 74 208 1.0 2.0 0.00 0.00 0.00 83 1018.6
20260905184223 74 343 0.0 2.0 0.00 0.00 0.00 87 1018.7
20260905183723 74 27 1.0 5.0 0.00 0.00 0.00 83 1018.7
20260905183223 74 340 1.0 2.0 0.00 0.00 0.00 86 1018.7
20260905182723 74 247 2.0 3.0 0.00 0.00 0.00 83 1018.6
20260905182223 74 356 0.0 2.0 0.00 0.00 0.00 84 1018.7
20260905181723 74 350 1.0 2.0 0.00 0.00 0.00 84 1018.7
20260905181223 73 41 1.0 1.0 0.00 0.00 0.00 85 1018.8
20260905180723 73 59 1.0 2.0 0.00 0.00 0.00 84 1018.8
20260905180224 73 206 0.0 2.0 0.00 0.00 0.00 85 1018.8
20260905175723 73 166 0.0 1.0 0.00 0.00 0.00 86 1019.0
20260905175223 73 348 0.0 1.0 0.00 0.00 0.00 86 1018.9
20260905174724 73 336 0.0 1.0 0.00 0.00 0.00 85 1018.9
20260905174223 73 48 0.0 2.0 0.00 0.00 0.00 85 1018.9
20260905173723 73 336 1.0 2.0 0.00 0.00 0.00 85 1018.9
20260905173224 73 17 0.0 1.0 0.00 0.00 0.00 86 1019.0
20260905172723 73 360 0.0 0.0 0.00 0.00 0.00 86 1018.9
20260905172223 72 60 0.0 1.0 0.00 0.00 0.00 89 1019.0
20260905171723 73 146 0.0 2.0 0.00 0.00 0.00 88 1018.9
20260905171223 73 234 1.0 2.0 0.00 0.00 0.00 87 1018.9
20260905170724 73 318 0.0 1.0 0.00 0.00 0.00 87 1018.9
20260905170224 73 63 1.0 2.0 0.00 0.00 0.00 86 1018.9
20260905165723 74 322 0.0 0.0 0.00 0.00 0.00 85 1018.9
20260905165224 73 296 0.0 2.0 0.00 0.00 0.00 86 1018.8
20260905164723 73 90 0.0 1.0 0.00 0.00 0.00 84 1018.8
20260905164223 73 360 0.0 0.0 0.00 0.00 0.00 89 1018.9
20260905163724 73 60 0.0 2.0 0.00 0.00 0.00 88 1018.9
20260905163223 73 72 1.0 2.0 0.00 0.00 0.00 87 1018.9
20260905162723 73 322 1.0 2.0 0.00 0.00 0.00 87 1019.0
20260905162223 73 294 1.0 1.0 0.00 0.00 0.00 88 1019.0
20260905161724 74 249 1.0 2.0 0.00 0.00 0.00 83 1018.8
20260905161224 74 160 1.0 3.0 0.00 0.00 0.00 83 1018.8
20260905160724 74 208 2.0 3.0 0.00 0.00 0.00 82 1018.8
20260905160223 74 333 0.0 2.0 0.00 0.00 0.00 83 1018.8
20260905155723 74 22 0.0 1.0 0.00 0.00 0.00 85 1019.0
20260905155224 73 249 1.0 2.0 0.00 0.00 0.00 83 1019.0
20260905154723 73 164 2.0 2.0 0.00 0.00 0.00 84 1018.8
20260905154224 72 194 2.0 2.0 0.00 0.00 0.00 89 1018.8
20260905153724 71 360 0.0 0.0 0.00 0.00 0.00 90 1018.7
20260905153223 70 309 1.0 2.0 0.00 0.00 0.00 92 1018.7
20260905152724 70 340 1.0 1.0 0.00 0.00 0.00 92 1018.7
20260905152223 70 360 0.0 0.0 0.00 0.00 0.00 91 1018.7
20260905151723 70 1 1.0 2.0 0.00 0.00 0.00 91 1018.6
20260905151223 69 286 0.0 1.0 0.00 0.00 0.00 94 1018.6
20260905150724 69 339 1.0 1.0 0.00 0.00 0.00 93 1018.7
20260905150223 69 2 1.0 2.0 0.00 0.00 0.00 92 1018.6